This demonstration page uses our WeatherBlox Daily Observations layout. Learn more.

Left ArrowRight Arrow

Hourly Observations for March 1, 2022

Temp ( °F °C ) Dew Point ( °F °C ) Humidity (%) Winds ( mph kmh ) Pressure ( in mb ) Visibility ( mi km ) Precip ( " mm )
12:53 am 00:53 Clear 52 11.1 16 -8.9 24 24 ESE 7 11 30.11 1020 10 16 0.00 0.00
1:53 am 01:53 Clear 50 10 17 -8.3 27 27 SE 10 17 30.10 1019 10 16 0.00 0.00
2:53 am 02:53 Clear 47 8.3 16 -8.9 29 29 ESE 6 9 30.08 1019 10 16 0.00 0.00
3:53 am 03:53 Clear 43 6.1 15 -9.4 32 32 NNE 7 11 30.08 1019 10 16 0.00 0.00
4:53 am 04:53 Clear 42 5.6 13 -10.6 30 30 NNE 6 9 30.09 1019 10 16 0.00 0.00
5:53 am 05:53 Clear 42 5.6 15 -9.4 33 33 NNE 5 7 30.09 1019 10 16 0.00 0.00
6:53 am 06:53 Clear 42 5.6 15 -9.4 33 33 NE 6 9 30.11 1020 10 16 0.00 0.00
7:53 am 07:53 Sunny 44 6.7 16 -8.9 32 32 ENE 5 7 30.13 1020 10 16 0.00 0.00
8:53 am 08:53 Sunny 47 8.3 17 -8.3 30 30 E 5 7 30.15 1021 10 16 0.00 0.00
9:53 am 09:53 Sunny 51 10.6 17 -8.3 26 26 E 6 9 30.15 1021 10 16 0.00 0.00
10:53 am 10:53 Sunny 55 12.8 16 -8.9 21 21 SE 5 7 30.15 1021 10 16 0.00 0.00
11:53 am 11:53 Sunny 59 15 17 -8.3 19 19 E 3 6 30.13 1020 10 16 0.00 0.00
12:53 pm 12:53 Sunny 62 16.7 16 -8.9 17 17 E 5 7 30.11 1020 10 16 0.00 0.00
1:53 pm 13:53 Sunny 65 18.3 15 -9.4 14 14 ESE 5 7 30.07 1018 10 16 0.00 0.00
2:53 pm 14:53 Sunny 67 19.4 14 -10 13 13 E 6 9 30.05 1018 10 16 0.00 0.00
3:53 pm 15:53 Sunny 68 20 12 -11.1 11 11 ESE 7 11 30.04 1017 10 16 0.00 0.00
4:53 pm 16:53 Sunny 68 20 12 -11.1 11 11 E 8 13 30.03 1017 10 16 0.00 0.00
5:53 pm 17:53 Sunny 66 18.9 13 -10.6 13 13 E 12 19 30.02 1017 10 16 0.00 0.00
6:53 pm 18:53 Clear 63 17.2 13 -10.6 14 14 ENE 9 15 30.04 1017 10 16 0.00 0.00
7:53 pm 19:53 Clear 58 14.4 13 -10.6 17 17 ENE 8 13 30.07 1018 10 16 0.00 0.00
8:53 pm 20:53 Clear 54 12.2 13 -10.6 19 19 ENE 8 13 30.09 1019 10 16 0.00 0.00
9:53 pm 21:53 Clear 50 10 13 -10.6 22 22 ENE 7 11 30.11 1020 10 16 0.00 0.00
10:53 pm 22:53 Clear 52 11.1 14 -10 22 22 E 8 13 30.10 1019 10 16 0.00 0.00
11:53 pm 23:53 Clear 50 10 14 -10 24 24 E 8 13 30.10 1019 10 16 0.00 0.00

Powered by AerisWeather